Location: Roland
(31.1349°N, 85.4372°W)
Time: 04:58:02
(UTC+00:00)

Courier 1B - Pass Details

Date: 22 April 2021
Orbit: 962 x 1209 km, 28.3° (Epoch: 07 May)

Event Time Altitude Azimuth Distance (km) Brightness Sun altitude
Rises 20:50:43 0° 273° (W) 3,666 11.3 42.5°
Reaches altitude 10° 20:53:26 10° 269° (W) 2,702 10.9 41.9°
Maximum altitude 20:59:45 56° 193° (SSW) 1,131 8.7 40.6°
Drops below altitude 10° 21:06:04 10° 116° (ESE) 2,701 9.5 39.2°
Sets 21:08:47 0° 112° (ESE) 3,666 10.1 38.7°
